{"data":{"norad_id":66397,"intl_designator":"2025-257T","name":"STARLINK-35510","alt_names":[],"object_type":"PAYLOAD","status":"ACTIVE","operator":null,"country":"US","launch_date":"2025-11-09","launch_site_code":"AFETR","launch_vehicle":null,"mission":null,"orbit_class":"UNKNOWN","rcs_meters":null,"size_class":null,"mass_kg":null,"dimensions":null,"purposes":["comms"],"wikipedia_slug":null,"has_3d_model":false,"image_url":null,"decayed_at":null,"tle_current":{"epoch":"2026-05-24T22:49:10.201728Z","epoch_age_seconds":79417,"freshness":"FRESH","line1":"1 66397U 25257T   26144.95081252  .00011717  00000+0  40700-3 0  9991","line2":"2 66397  53.1589 222.4944 0001628  45.3308 314.7826 15.30207156 31411","mean_motion":15.30207156,"eccentricity":0.0001628,"inclination_deg":53.1589,"raan_deg":222.4944,"arg_perigee_deg":45.3308,"mean_anomaly_deg":314.7826,"bstar":0.000407,"rev_number":3141,"period_min":94.104905623641,"perigee_km":474.07798073802,"apogee_km":476.30942521491,"semimajor_km":6853.3307029765,"source":"CELESTRAK","updated_at":"2026-05-25T13:38:21.203897Z"}}}